TimeAKST,TemperatureF,Dew PointF,Humidity,Sea Level PressureIn,VisibilityMPH,Wind Direction,Wind SpeedMPH,Gust SpeedMPH,PrecipitationIn,Events,Conditions,WindDirDegrees,DateUTC
12:53 AM,34.0,32.0,92,30.25,10.0,NNE,6.9,-,N/A,,Clear,20,2012-11-08 09:53:00
1:53 AM,35.1,32.0,89,30.25,10.0,NNE,8.1,-,N/A,,Clear,30,2012-11-08 10:53:00
3:53 AM,34.0,30.9,89,30.26,10.0,NNE,3.5,-,N/A,,Clear,30,2012-11-08 12:53:00
4:53 AM,33.1,30.9,92,30.27,10.0,Calm,Calm,-,N/A,,Clear,0,2012-11-08 13:53:00
5:53 AM,32.0,30.0,92,30.27,10.0,Calm,Calm,-,N/A,,Clear,0,2012-11-08 14:53:00
6:53 AM,33.1,30.0,89,30.27,10.0,NNE,5.8,-,N/A,,Clear,30,2012-11-08 15:53:00
7:53 AM,33.1,30.0,89,30.29,10.0,NNE,8.1,-,N/A,,Clear,30,2012-11-08 16:53:00
8:53 AM,36.0,30.9,82,30.29,10.0,Variable,4.6,-,N/A,,Clear,0,2012-11-08 17:53:00
9:53 AM,37.0,30.9,79,30.29,10.0,Variable,5.8,-,0.01,,Clear,0,2012-11-08 18:53:00
10:53 AM,39.0,30.9,73,30.28,10.0,NNE,5.8,-,N/A,,Clear,20,2012-11-08 19:53:00
11:53 AM,39.9,32.0,73,30.28,10.0,NE,4.6,-,N/A,,Clear,40,2012-11-08 20:53:00
12:53 PM,41.0,30.9,67,30.28,10.0,ENE,4.6,-,N/A,,Clear,60,2012-11-08 21:53:00
1:53 PM,39.9,30.9,70,30.28,10.0,NE,5.8,-,N/A,,Clear,50,2012-11-08 22:53:00
2:53 PM,37.0,30.0,76,30.27,10.0,NNE,5.8,-,N/A,,Clear,30,2012-11-08 23:53:00
3:53 PM,35.1,30.0,82,30.27,10.0,NNE,4.6,-,N/A,,Clear,30,2012-11-09 00:53:00
4:53 PM,33.1,30.0,89,30.27,10.0,Calm,Calm,-,N/A,,Clear,0,2012-11-09 01:53:00
5:53 PM,30.9,28.9,92,30.27,10.0,NNE,4.6,-,N/A,,Clear,20,2012-11-09 02:53:00
6:53 PM,30.9,28.9,92,30.27,10.0,North,3.5,-,N/A,,Clear,360,2012-11-09 03:53:00
7:53 PM,30.9,28.0,89,30.26,10.0,NNE,4.6,-,N/A,,Clear,20,2012-11-09 04:53:00
8:53 PM,30.0,28.0,92,30.26,10.0,NNE,4.6,-,N/A,,Clear,30,2012-11-09 05:53:00
9:53 PM,32.0,28.9,88,30.25,10.0,NNE,5.8,-,N/A,,Clear,20,2012-11-09 06:53:00
10:53 PM,32.0,28.0,85,30.25,10.0,NNE,3.5,-,N/A,,Clear,30,2012-11-09 07:53:00
11:53 PM,30.9,28.0,89,30.25,10.0,NE,5.8,-,N/A,,Clear,40,2012-11-09 08:53:00